{"data":{"norad_id":64542,"intl_designator":"2025-135Q","name":"T1DES 1 (DRAGOON 1)","alt_names":[],"object_type":"PAYLOAD","status":"ACTIVE","operator":null,"country":"US","launch_date":"2025-06-23","launch_site_code":"AFWTR","launch_vehicle":null,"mission":null,"orbit_class":"UNKNOWN","rcs_meters":null,"size_class":null,"mass_kg":null,"dimensions":null,"purposes":[],"wikipedia_slug":null,"has_3d_model":false,"image_url":null,"decayed_at":null,"tle_current":{"epoch":"2026-05-24T21:33:27.999072Z","epoch_age_seconds":74120,"freshness":"FRESH","line1":"1 64542U 25135Q   26144.89824073  .00008157  00000+0  32571-3 0  9996","line2":"2 64542  97.4673 261.1019 0001561 233.3297 126.7798 15.25410573 51370","mean_motion":15.25410573,"eccentricity":0.0001561,"inclination_deg":97.4673,"raan_deg":261.1019,"arg_perigee_deg":233.3297,"mean_anomaly_deg":126.7798,"bstar":0.00032571,"rev_number":5137,"period_min":94.400814147235,"perigee_km":488.48079217869,"apogee_km":490.62488494629,"semimajor_km":6867.6898385625,"source":"CELESTRAK","updated_at":"2026-05-25T13:38:04.583743Z"}}}